| time (UTC) | temp F | wind direction | speed MPH | gust MPH | rain 1hr in | rain 24hr in | rain mn in | humidity % | barometer mb |
| 20260507185531 | 85 | 109 | 11.0 | 13.0 | 0.00 | 0.00 | 0.00 | 71 | 1016.8 |
| 20260507185028 | 85 | 67 | 7.0 | 11.0 | 0.00 | 0.00 | 0.00 | 69 | 1016.9 |
| 20260507184526 | 85 | 146 | 5.0 | 11.0 | 0.00 | 0.00 | 0.00 | 71 | 1016.7 |
| 20260507184024 | 85 | 139 | 9.0 | 14.0 | 0.00 | 0.00 | 0.00 | 70 | 1016.9 |
| 20260507183519 | 85 | 105 | 10.0 | 16.0 | 0.00 | 0.00 | 0.00 | 72 | 1016.9 |
| 20260507183017 | 85 | 157 | 9.0 | 13.0 | 0.00 | 0.00 | 0.00 | 73 | 1016.9 |
| 20260507182513 | 85 | 104 | 6.0 | 13.0 | 0.00 | 0.00 | 0.00 | 73 | 1017.1 |
| 20260507182009 | 85 | 135 | 12.0 | 15.0 | 0.00 | 0.00 | 0.00 | 71 | 1017.0 |
| 20260507181506 | 85 | 141 | 7.0 | 10.0 | 0.00 | 0.00 | 0.00 | 69 | 1017.1 |
| 20260507181002 | 85 | 230 | 4.0 | 10.0 | 0.00 | 0.00 | 0.00 | 71 | 1017.2 |
| 20260507180458 | 85 | 88 | 8.0 | 10.0 | 0.00 | 0.00 | 0.00 | 72 | 1017.2 |
| 20260507175954 | 85 | 108 | 11.0 | 14.0 | 0.00 | 0.00 | 0.00 | 73 | 1017.4 |
| 20260507175451 | 86 | 157 | 6.0 | 13.0 | 0.00 | 0.00 | 0.00 | 72 | 1017.5 |
| 20260507174949 | 86 | 57 | 9.0 | 11.0 | 0.00 | 0.00 | 0.00 | 71 | 1017.5 |
| 20260507174446 | 85 | 74 | 7.0 | 14.0 | 0.00 | 0.00 | 0.00 | 72 | 1017.6 |
| 20260507173943 | 85 | 59 | 11.0 | 16.0 | 0.00 | 0.00 | 0.00 | 71 | 1017.5 |
| 20260507173440 | 85 | 158 | 6.0 | 15.0 | 0.00 | 0.00 | 0.00 | 73 | 1017.6 |
| 20260507172937 | 85 | 85 | 11.0 | 15.0 | 0.00 | 0.00 | 0.00 | 72 | 1017.6 |
| 20260507172434 | 85 | 113 | 4.0 | 15.0 | 0.00 | 0.00 | 0.00 | 72 | 1018.0 |
| 20260507171930 | 85 | 105 | 5.0 | 16.0 | 0.00 | 0.00 | 0.00 | 75 | 1017.8 |
| 20260507171426 | 85 | 128 | 5.0 | 10.0 | 0.00 | 0.00 | 0.00 | 74 | 1017.9 |
| 20260507170924 | 84 | 106 | 5.0 | 10.0 | 0.00 | 0.00 | 0.00 | 72 | 1018.0 |
| 20260507170420 | 85 | 78 | 5.0 | 14.0 | 0.00 | 0.00 | 0.00 | 73 | 1018.3 |
| 20260507165917 | 85 | 173 | 6.0 | 8.0 | 0.00 | 0.00 | 0.00 | 73 | 1018.1 |
| 20260507165412 | 84 | 107 | 4.0 | 9.0 | 0.00 | 0.00 | 0.00 | 73 | 1018.4 |
| 20260507164908 | 84 | 52 | 9.0 | 13.0 | 0.00 | 0.00 | 0.00 | 73 | 1018.3 |
| 20260507164406 | 84 | 83 | 8.0 | 11.0 | 0.00 | 0.00 | 0.00 | 72 | 1018.4 |
| 20260507163903 | 84 | 48 | 6.0 | 14.0 | 0.00 | 0.00 | 0.00 | 75 | 1018.6 |
| 20260507163400 | 84 | 97 | 7.0 | 10.0 | 0.00 | 0.00 | 0.00 | 77 | 1018.7 |
| 20260507162857 | 83 | 93 | 7.0 | 11.0 | 0.00 | 0.00 | 0.00 | 77 | 1018.7 |
| 20260507162352 | 83 | 92 | 8.0 | 11.0 | 0.00 | 0.00 | 0.00 | 78 | 1018.9 |
| 20260507161850 | 82 | 124 | 6.0 | 10.0 | 0.00 | 0.00 | 0.00 | 81 | 1018.8 |
| 20260507161346 | 81 | 100 | 6.0 | 10.0 | 0.00 | 0.00 | 0.00 | 83 | 1019.0 |
| 20260507160843 | 81 | 88 | 6.0 | 7.0 | 0.00 | 0.00 | 0.00 | 86 | 1018.9 |
| 20260507160338 | 80 | 91 | 5.0 | 7.0 | 0.00 | 0.00 | 0.00 | 85 | 1019.0 |
| 20260507155835 | 81 | 85 | 6.0 | 9.0 | 0.00 | 0.00 | 0.00 | 82 | 1019.2 |
| 20260507155330 | 82 | 88 | 6.0 | 10.0 | 0.00 | 0.00 | 0.00 | 79 | 1019.0 |
| 20260507154827 | 82 | 59 | 6.0 | 10.0 | 0.00 | 0.00 | 0.00 | 79 | 1019.1 |
| 20260507154325 | 82 | 102 | 5.0 | 13.0 | 0.00 | 0.00 | 0.00 | 81 | 1019.1 |
| 20260507153821 | 83 | 118 | 4.0 | 8.0 | 0.00 | 0.00 | 0.00 | 79 | 1019.1 |
| 20260507153318 | 83 | 117 | 5.0 | 10.0 | 0.00 | 0.00 | 0.00 | 79 | 1019.3 |
| 20260507152815 | 82 | 91 | 5.0 | 7.0 | 0.00 | 0.00 | 0.00 | 82 | 1019.2 |
| 20260507152311 | 82 | 147 | 5.0 | 9.0 | 0.00 | 0.00 | 0.00 | 81 | 1019.0 |
| 20260507151807 | 83 | 87 | 7.0 | 11.0 | 0.00 | 0.00 | 0.00 | 78 | 1019.1 |
| 20260507151303 | 84 | 98 | 6.0 | 8.0 | 0.00 | 0.00 | 0.00 | 77 | 1019.2 |
| 20260507150800 | 84 | 174 | 4.0 | 13.0 | 0.00 | 0.00 | 0.00 | 77 | 1019.2 |
| 20260507150257 | 84 | 148 | 6.0 | 9.0 | 0.00 | 0.00 | 0.00 | 76 | 1019.0 |
| 20260507145753 | 84 | 74 | 5.0 | 10.0 | 0.00 | 0.00 | 0.00 | 74 | 1019.3 |
| 20260507145250 | 83 | 8 | 4.0 | 10.0 | 0.00 | 0.00 | 0.00 | 76 | 1019.2 |
| 20260507144747 | 84 | 101 | 5.0 | 13.0 | 0.00 | 0.00 | 0.00 | 75 | 1019.2 |
| 20260507144244 | 84 | 124 | 6.0 | 13.0 | 0.00 | 0.00 | 0.00 | 73 | 1019.2 |
| 20260507143740 | 84 | 88 | 7.0 | 14.0 | 0.00 | 0.00 | 0.00 | 75 | 1019.2 |
| 20260507143238 | 84 | 108 | 6.0 | 13.0 | 0.00 | 0.00 | 0.00 | 74 | 1019.5 |
| 20260507142734 | 84 | 74 | 5.0 | 8.0 | 0.00 | 0.00 | 0.00 | 74 | 1019.2 |
| 20260507142230 | 83 | 51 | 4.0 | 8.0 | 0.00 | 0.00 | 0.00 | 75 | 1019.5 |
| 20260507141727 | 83 | 104 | 6.0 | 10.0 | 0.00 | 0.00 | 0.00 | 75 | 1019.2 |
| 20260507141224 | 83 | 84 | 9.0 | 14.0 | 0.00 | 0.00 | 0.00 | 75 | 1019.5 |
| 20260507140720 | 83 | 104 | 12.0 | 14.0 | 0.00 | 0.00 | 0.00 | 75 | 1019.5 |
| 20260507140218 | 83 | 82 | 8.0 | 10.0 | 0.00 | 0.00 | 0.00 | 75 | 1019.5 |
| 20260507135714 | 83 | 117 | 7.0 | 11.0 | 0.00 | 0.00 | 0.00 | 75 | 1019.2 |
| 20260507135212 | 82 | 83 | 7.0 | 10.0 | 0.00 | 0.00 | 0.00 | 79 | 1019.4 |
| 20260507134708 | 82 | 116 | 7.0 | 11.0 | 0.00 | 0.00 | 0.00 | 79 | 1019.4 |
| 20260507134204 | 82 | 76 | 7.0 | 13.0 | 0.00 | 0.00 | 0.00 | 79 | 1019.3 |
| 20260507133700 | 83 | 77 | 9.0 | 14.0 | 0.00 | 0.00 | 0.00 | 77 | 1019.1 |
| 20260507133158 | 82 | 195 | 9.0 | 14.0 | 0.00 | 0.00 | 0.00 | 78 | 1019.1 |
| 20260507132655 | 82 | 114 | 9.0 | 17.0 | 0.00 | 0.00 | 0.00 | 79 | 1019.2 |
| 20260507132151 | 81 | 107 | 4.0 | 10.0 | 0.00 | 0.00 | 0.00 | 81 | 1019.0 |
| 20260507131648 | 81 | 139 | 6.0 | 11.0 | 0.00 | 0.00 | 0.00 | 82 | 1019.0 |
| 20260507131145 | 81 | 92 | 4.0 | 15.0 | 0.00 | 0.00 | 0.00 | 82 | 1018.8 |
| 20260507130642 | 80 | 99 | 4.0 | 6.0 | 0.00 | 0.00 | 0.00 | 84 | 1019.0 |
| 20260507130140 | 80 | 156 | 4.0 | 6.0 | 0.00 | 0.00 | 0.00 | 84 | 1019.0 |
| 20260507125638 | 80 | 106 | 5.0 | 7.0 | 0.00 | 0.00 | 0.00 | 83 | 1019.1 |
| 20260507125136 | 80 | 59 | 3.0 | 10.0 | 0.00 | 0.00 | 0.00 | 83 | 1019.1 |
| 20260507124631 | 81 | 76 | 7.0 | 10.0 | 0.00 | 0.00 | 0.00 | 82 | 1019.0 |
| 20260507124129 | 81 | 245 | 6.0 | 11.0 | 0.00 | 0.00 | 0.00 | 82 | 1019.1 |
| 20260507123628 | 81 | 64 | 4.0 | 10.0 | 0.00 | 0.00 | 0.00 | 83 | 1018.9 |
| 20260507123124 | 81 | 79 | 7.0 | 10.0 | 0.00 | 0.00 | 0.00 | 85 | 1018.9 |
| 20260507122620 | 80 | 77 | 7.0 | 10.0 | 0.00 | 0.00 | 0.00 | 87 | 1018.7 |
| 20260507122115 | 79 | 76 | 3.0 | 7.0 | 0.00 | 0.00 | 0.00 | 88 | 1018.8 |
| 20260507121612 | 79 | 95 | 5.0 | 9.0 | 0.00 | 0.00 | 0.00 | 88 | 1018.7 |
| 20260507121108 | 79 | 93 | 5.0 | 7.0 | 0.00 | 0.00 | 0.00 | 87 | 1018.6 |
| 20260507120604 | 79 | 80 | 4.0 | 7.0 | 0.00 | 0.00 | 0.00 | 87 | 1018.4 |
| 20260507120101 | 79 | 92 | 3.0 | 4.0 | 0.00 | 0.00 | 0.00 | 88 | 1018.6 |
| 20260507115557 | 79 | 101 | 4.0 | 7.0 | 0.00 | 0.00 | 0.00 | 88 | 1018.6 |
| 20260507115053 | 79 | 57 | 5.0 | 10.0 | 0.00 | 0.00 | 0.00 | 88 | 1018.3 |
| 20260507114549 | 79 | 135 | 4.0 | 6.0 | 0.00 | 0.00 | 0.00 | 89 | 1018.5 |
| 20260507114047 | 79 | 84 | 4.0 | 6.0 | 0.00 | 0.00 | 0.00 | 88 | 1018.3 |
| 20260507113543 | 79 | 63 | 5.0 | 6.0 | 0.00 | 0.00 | 0.00 | 89 | 1018.4 |
| 20260507113041 | 78 | 67 | 3.0 | 6.0 | 0.00 | 0.00 | 0.00 | 90 | 1018.3 |
| 20260507112538 | 79 | 53 | 4.0 | 6.0 | 0.00 | 0.00 | 0.00 | 89 | 1018.3 |
| 20260507112035 | 79 | 61 | 2.0 | 4.0 | 0.00 | 0.00 | 0.00 | 90 | 1018.1 |
| 20260507111532 | 79 | 90 | 2.0 | 7.0 | 0.00 | 0.00 | 0.00 | 89 | 1018.0 |
| 20260507111029 | 80 | 77 | 1.0 | 3.0 | 0.00 | 0.00 | 0.00 | 91 | 1018.2 |
| 20260507110525 | 78 | 85 | 0.0 | 1.0 | 0.00 | 0.00 | 0.00 | 93 | 1018.1 |
| 20260507110022 | 78 | 59 | 0.0 | 1.0 | 0.00 | 0.00 | 0.00 | 93 | 1018.3 |
| 20260507105519 | 77 | 80 | 1.0 | 2.0 | 0.00 | 0.00 | 0.00 | 93 | 1018.0 |
| 20260507105015 | 77 | 117 | 1.0 | 1.0 | 0.00 | 0.00 | 0.00 | 94 | 1018.2 |
| 20260507104513 | 77 | 127 | 1.0 | 2.0 | 0.00 | 0.00 | 0.00 | 94 | 1018.1 |
| 20260507104008 | 77 | 84 | 1.0 | 2.0 | 0.00 | 0.00 | 0.00 | 94 | 1017.9 |
| 20260507103505 | 77 | 123 | 1.0 | 2.0 | 0.00 | 0.00 | 0.00 | 94 | 1018.0 |
| 20260507103001 | 76 | 85 | 1.0 | 1.0 | 0.00 | 0.00 | 0.00 | 95 | 1018.0 |
| 20260507102458 | 76 | 88 | 1.0 | 2.0 | 0.00 | 0.00 | 0.00 | 95 | 1018.2 |
| 20260507101954 | 76 | 195 | 1.0 | 2.0 | 0.00 | 0.00 | 0.00 | 95 | 1018.0 |
| 20260507101449 | 75 | 114 | 0.0 | 0.0 | 0.00 | 0.00 | 0.00 | 95 | 1017.8 |
| 20260507100946 | 75 | 190 | 0.0 | 2.0 | 0.00 | 0.00 | 0.00 | 95 | 1017.6 |
| 20260507100443 | 75 | 216 | 0.0 | 1.0 | 0.00 | 0.00 | 0.00 | 95 | 1017.7 |
| 20260507095942 | 75 | 228 | 1.0 | 2.0 | 0.00 | 0.00 | 0.00 | 95 | 1017.8 |
| 20260507095439 | 75 | 245 | 0.0 | 0.0 | 0.00 | 0.00 | 0.00 | 95 | 1017.7 |
| 20260507094936 | 75 | 261 | 0.0 | 0.0 | 0.00 | 0.00 | 0.00 | 95 | 1017.9 |
| 20260507094432 | 75 | 254 | 0.0 | 0.0 | 0.00 | 0.00 | 0.00 | 95 | 1017.9 |
| 20260507093929 | 75 | 231 | 1.0 | 2.0 | 0.00 | 0.00 | 0.00 | 94 | 1017.9 |
| 20260507093427 | 75 | 112 | 0.0 | 0.0 | 0.00 | 0.00 | 0.00 | 94 | 1017.8 |
| 20260507092925 | 75 | 112 | 0.0 | 1.0 | 0.00 | 0.00 | 0.00 | 94 | 1017.7 |
| 20260507092421 | 75 | 111 | 0.0 | 0.0 | 0.00 | 0.00 | 0.00 | 94 | 1017.7 |
| 20260507091918 | 75 | 113 | 0.0 | 0.0 | 0.00 | 0.00 | 0.00 | 94 | 1017.8 |
| 20260507091414 | 75 | 113 | 0.0 | 1.0 | 0.00 | 0.00 | 0.00 | 94 | 1017.9 |
| 20260507090910 | 75 | 112 | 0.0 | 0.0 | 0.00 | 0.00 | 0.00 | 94 | 1017.8 |
| 20260507090407 | 75 | 114 | 0.0 | 1.0 | 0.00 | 0.00 | 0.00 | 93 | 1017.8 |
| 20260507085903 | 75 | 116 | 0.0 | 0.0 | 0.00 | 0.00 | 0.00 | 94 | 1017.9 |
| 20260507085400 | 75 | 116 | 0.0 | 1.0 | 0.00 | 0.00 | 0.00 | 93 | 1017.9 |
| 20260507084857 | 75 | 115 | 0.0 | 0.0 | 0.00 | 0.00 | 0.00 | 93 | 1017.9 |
| 20260507084354 | 75 | 115 | 0.0 | 0.0 | 0.00 | 0.00 | 0.00 | 93 | 1017.8 |
| 20260507083851 | 76 | 116 | 0.0 | 0.0 | 0.00 | 0.00 | 0.00 | 93 | 1017.7 |
| 20260507083347 | 76 | 115 | 0.0 | 0.0 | 0.00 | 0.00 | 0.00 | 93 | 1017.7 |
| 20260507082844 | 76 | 126 | 0.0 | 0.0 | 0.00 | 0.00 | 0.00 | 92 | 1017.6 |
| 20260507082339 | 77 | 131 | 0.0 | 1.0 | 0.00 | 0.00 | 0.00 | 93 | 1017.6 |
| 20260507081837 | 77 | 162 | 2.0 | 2.0 | 0.00 | 0.00 | 0.00 | 93 | 1017.4 |
| 20260507081332 | 76 | 112 | 1.0 | 2.0 | 0.00 | 0.00 | 0.00 | 93 | 1017.6 |
| 20260507080830 | 76 | 110 | 0.0 | 1.0 | 0.00 | 0.00 | 0.00 | 93 | 1017.7 |
| 20260507080326 | 76 | 96 | 0.0 | 0.0 | 0.00 | 0.00 | 0.00 | 93 | 1017.6 |
| 20260507075821 | 77 | 46 | 1.0 | 2.0 | 0.00 | 0.00 | 0.00 | 92 | 1017.6 |
| 20260507075317 | 77 | 115 | 2.0 | 2.0 | 0.00 | 0.00 | 0.00 | 92 | 1017.5 |
| 20260507074814 | 77 | 96 | 1.0 | 2.0 | 0.00 | 0.00 | 0.00 | 92 | 1017.6 |
| 20260507074312 | 77 | 97 | 0.0 | 2.0 | 0.00 | 0.00 | 0.00 | 92 | 1017.6 |
| 20260507073809 | 77 | 143 | 1.0 | 2.0 | 0.00 | 0.00 | 0.00 | 92 | 1017.5 |
| 20260507073306 | 77 | 111 | 1.0 | 3.0 | 0.00 | 0.00 | 0.00 | 92 | 1017.8 |
| 20260507072803 | 77 | 69 | 2.0 | 3.0 | 0.00 | 0.00 | 0.00 | 92 | 1017.6 |
| 20260507072300 | 77 | 133 | 2.0 | 3.0 | 0.00 | 0.00 | 0.00 | 92 | 1017.9 |
| 20260507071757 | 77 | 89 | 1.0 | 1.0 | 0.00 | 0.00 | 0.00 | 92 | 1017.7 |
| 20260507071254 | 77 | 70 | 1.0 | 2.0 | 0.00 | 0.00 | 0.00 | 92 | 1017.8 |
| 20260507070751 | 77 | 50 | 2.0 | 3.0 | 0.00 | 0.00 | 0.00 | 92 | 1017.8 |
| 20260507070247 | 77 | 78 | 0.0 | 3.0 | 0.00 | 0.00 | 0.00 | 92 | 1018.0 |
| 20260507065744 | 77 | 50 | 1.0 | 2.0 | 0.00 | 0.00 | 0.00 | 92 | 1017.9 |
| 20260507065241 | 77 | 53 | 1.0 | 1.0 | 0.00 | 0.00 | 0.00 | 92 | 1017.8 |
| 20260507064738 | 77 | 66 | 0.0 | 3.0 | 0.00 | 0.00 | 0.00 | 92 | 1018.1 |
| 20260507064237 | 77 | 139 | 2.0 | 3.0 | 0.00 | 0.00 | 0.00 | 92 | 1018.0 |
| 20260507063734 | 77 | 155 | 1.0 | 4.0 | 0.00 | 0.00 | 0.00 | 92 | 1018.0 |
| 20260507063231 | 77 | 118 | 3.0 | 3.0 | 0.00 | 0.00 | 0.00 | 91 | 1018.3 |
| 20260507062728 | 77 | 167 | 2.0 | 3.0 | 0.00 | 0.00 | 0.00 | 91 | 1018.1 |
| 20260507062225 | 77 | 107 | 2.0 | 6.0 | 0.00 | 0.00 | 0.00 | 92 | 1018.2 |
| 20260507061723 | 77 | 84 | 5.0 | 6.0 | 0.00 | 0.00 | 0.00 | 92 | 1018.2 |
| 20260507061221 | 77 | 193 | 2.0 | 3.0 | 0.00 | 0.00 | 0.00 | 92 | 1018.3 |
| 20260507060719 | 77 | 89 | 1.0 | 2.0 | 0.00 | 0.00 | 0.00 | 92 | 1018.4 |
| 20260507060215 | 77 | 137 | 0.0 | 3.0 | 0.00 | 0.00 | 0.00 | 93 | 1018.4 |
| 20260507055711 | 77 | 80 | 2.0 | 2.0 | 0.00 | 0.00 | 0.00 | 93 | 1018.4 |
| 20260507055207 | 77 | 183 | 0.0 | 0.0 | 0.00 | 0.00 | 0.00 | 92 | 1018.5 |
| 20260507054703 | 77 | 188 | 0.0 | 2.0 | 0.00 | 0.00 | 0.00 | 93 | 1018.6 |
| 20260507054200 | 77 | 84 | 1.0 | 2.0 | 0.00 | 0.00 | 0.00 | 93 | 1018.4 |
| 20260507053658 | 77 | 78 | 1.0 | 3.0 | 0.00 | 0.00 | 0.00 | 93 | 1018.6 |
| 20260507053155 | 77 | 95 | 1.0 | 3.0 | 0.00 | 0.00 | 0.00 | 94 | 1018.6 |
| 20260507052654 | 77 | 149 | 2.0 | 2.0 | 0.00 | 0.00 | 0.00 | 94 | 1018.9 |
| 20260507052150 | 77 | 296 | 0.0 | 0.0 | 0.00 | 0.00 | 0.00 | 94 | 1018.9 |
| 20260507051647 | 77 | 296 | 0.0 | 0.0 | 0.00 | 0.00 | 0.00 | 94 | 1018.9 |
| 20260507051144 | 77 | 296 | 0.0 | 0.0 | 0.00 | 0.00 | 0.00 | 94 | 1019.0 |
| 20260507050641 | 77 | 296 | 0.0 | 0.0 | 0.00 | 0.00 | 0.00 | 94 | 1019.4 |
| 20260507050138 | 77 | 295 | 0.0 | 0.0 | 0.00 | 0.00 | 0.00 | 94 | 1019.2 |
| 20260507045635 | 77 | 296 | 0.0 | 0.0 | 0.00 | 0.00 | 0.00 | 93 | 1019.6 |
| 20260507045131 | 77 | 273 | 0.0 | 1.0 | 0.00 | 0.00 | 0.00 | 93 | 1019.5 |
| 20260507044628 | 77 | 259 | 1.0 | 2.0 | 0.00 | 0.00 | 0.00 | 93 | 1019.6 |
| 20260507044125 | 77 | 257 | 1.0 | 2.0 | 0.00 | 0.00 | 0.00 | 93 | 1019.6 |
| 20260507043621 | 77 | 243 | 2.0 | 2.0 | 0.00 | 0.00 | 0.00 | 92 | 1019.7 |
| 20260507043118 | 77 | 234 | 0.0 | 2.0 | 0.00 | 0.00 | 0.00 | 93 | 1019.7 |
| 20260507042614 | 77 | 231 | 2.0 | 2.0 | 0.00 | 0.00 | 0.00 | 92 | 1019.8 |
| 20260507042110 | 77 | 206 | 1.0 | 2.0 | 0.00 | 0.00 | 0.00 | 92 | 1019.9 |
| 20260507041607 | 77 | 168 | 0.0 | 1.0 | 0.00 | 0.00 | 0.00 | 91 | 1020.0 |
| 20260507041104 | 77 | 167 | 0.0 | 0.0 | 0.00 | 0.00 | 0.00 | 91 | 1019.8 |
| 20260507040600 | 78 | 167 | 0.0 | 1.0 | 0.00 | 0.00 | 0.00 | 91 | 1020.0 |
| 20260507040057 | 78 | 135 | 0.0 | 1.0 | 0.00 | 0.10 | 0.10 | 91 | 1019.9 |
| 20260507035552 | 78 | 139 | 1.0 | 1.0 | 0.00 | 0.10 | 0.10 | 91 | 1020.1 |
| 20260507035049 | 77 | 119 | 0.0 | 1.0 | 0.00 | 0.10 | 0.10 | 91 | 1020.0 |
| 20260507034546 | 77 | 84 | 0.0 | 0.0 | 0.00 | 0.10 | 0.10 | 91 | 1020.1 |
| 20260507034044 | 78 | 65 | 1.0 | 2.0 | 0.00 | 0.10 | 0.10 | 92 | 1020.0 |
| 20260507033542 | 77 | 90 | 2.0 | 2.0 | 0.00 | 0.10 | 0.10 | 92 | 1020.2 |
| 20260507033039 | 77 | 84 | 1.0 | 2.0 | 0.00 | 0.10 | 0.10 | 92 | 1020.1 |
| 20260507032535 | 78 | 62 | 2.0 | 3.0 | 0.00 | 0.10 | 0.10 | 92 | 1020.1 |
| 20260507032032 | 78 | 157 | 0.0 | 2.0 | 0.00 | 0.10 | 0.10 | 92 | 1020.0 |
| 20260507031528 | 78 | 189 | 1.0 | 2.0 | 0.00 | 0.10 | 0.10 | 93 | 1020.2 |
| 20260507031026 | 78 | 100 | 1.0 | 3.0 | 0.00 | 0.10 | 0.10 | 93 | 1020.2 |
| 20260507030522 | 78 | 72 | 2.0 | 4.0 | 0.00 | 0.10 | 0.10 | 93 | 1020.0 |
| 20260507030020 | 78 | 86 | 2.0 | 4.0 | 0.00 | 0.10 | 0.10 | 93 | 1020.1 |
| 20260507025516 | 78 | 104 | 3.0 | 4.0 | 0.19 | 0.10 | 0.10 | 94 | 1020.2 |
| 20260507025014 | 78 | 79 | 2.0 | 3.0 | 0.19 | 0.10 | 0.10 | 94 | 1020.1 |
| 20260507024512 | 77 | 344 | 0.0 | 0.0 | 0.00 | 0.07 | 0.07 | 93 | 1020.2 |
| 20260507024008 | 77 | 20 | 0.0 | 0.0 | 0.00 | 0.07 | 0.07 | 93 | 1020.1 |
| 20260507023504 | 77 | 5 | 0.0 | 0.0 | 0.00 | 0.07 | 0.07 | 93 | 1020.2 |
| 20260507023002 | 77 | 214 | 1.0 | 1.0 | 0.00 | 0.07 | 0.07 | 93 | 1020.1 |
| 20260507022459 | 77 | 218 | 2.0 | 2.0 | 0.00 | 0.07 | 0.07 | 93 | 1020.0 |
| 20260507021954 | 77 | 230 | 1.0 | 3.0 | 0.00 | 0.07 | 0.07 | 93 | 1020.1 |
| 20260507021450 | 77 | 231 | 2.0 | 3.0 | 0.00 | 0.07 | 0.07 | 93 | 1020.2 |
| 20260507020947 | 77 | 204 | 1.0 | 2.0 | 0.00 | 0.07 | 0.07 | 93 | 1020.0 |
| 20260507020444 | 77 | 244 | 1.0 | 2.0 | 0.00 | 0.07 | 0.07 | 93 | 1020.1 |
| 20260507015941 | 77 | 250 | 2.0 | 3.0 | 0.00 | 0.07 | 0.07 | 92 | 1020.1 |
| 20260507015439 | 77 | 277 | 0.0 | 2.0 | 0.00 | 0.07 | 0.07 | 93 | 1020.0 |
| 20260507014936 | 77 | 289 | 0.0 | 1.0 | 0.00 | 0.07 | 0.07 | 93 | 1019.9 |
| 20260507014433 | 77 | 318 | 1.0 | 1.0 | 0.00 | 0.07 | 0.07 | 92 | 1019.9 |
| 20260507013929 | 77 | 309 | 1.0 | 2.0 | 0.00 | 0.07 | 0.07 | 91 | 1019.9 |
| 20260507013426 | 77 | 248 | 1.0 | 2.0 | 0.05 | 0.07 | 0.07 | 91 | 1019.8 |
| 20260507012923 | 78 | 256 | 0.0 | 2.0 | 0.28 | 0.07 | 0.07 | 91 | 1019.8 |
| 20260507012420 | 78 | 249 | 1.0 | 2.0 | 0.24 | 0.06 | 0.06 | 90 | 1019.8 |
| 20260507011917 | 77 | 288 | 0.0 | 1.0 | 0.00 | 0.02 | 0.02 | 89 | 1019.8 |
| 20260507011414 | 77 | 333 | 1.0 | 1.0 | 0.00 | 0.02 | 0.02 | 89 | 1019.9 |
| 20260507010913 | 77 | 290 | 0.0 | 2.0 | 0.00 | 0.02 | 0.02 | 89 | 1019.8 |
| 20260507010409 | 77 | 279 | 0.0 | 2.0 | 0.00 | 0.02 | 0.02 | 88 | 1019.6 |
| 20260507005906 | 77 | 284 | 2.0 | 2.0 | 0.00 | 0.02 | 0.02 | 88 | 1019.6 |
| 20260507005403 | 78 | 288 | 1.0 | 2.0 | 0.00 | 0.02 | 0.02 | 86 | 1019.4 |
| 20260507004900 | 79 | 305 | 0.0 | 1.0 | 0.00 | 0.02 | 0.02 | 84 | 1019.4 |
| 20260507004357 | 81 | 300 | 0.0 | 2.0 | 0.00 | 0.02 | 0.02 | 81 | 1019.4 |
| 20260507003854 | 81 | 187 | 0.0 | 0.0 | 0.00 | 0.02 | 0.02 | 80 | 1019.3 |
| 20260507003349 | 82 | 85 | 1.0 | 2.0 | 0.00 | 0.02 | 0.02 | 80 | 1019.4 |
| 20260507002845 | 82 | 107 | 0.0 | 2.0 | 0.00 | 0.02 | 0.02 | 80 | 1019.2 |
| 20260507002341 | 81 | 137 | 2.0 | 3.0 | 0.00 | 0.02 | 0.02 | 80 | 1019.2 |
| 20260507001838 | 82 | 119 | 1.0 | 3.0 | 0.00 | 0.02 | 0.02 | 80 | 1019.0 |
| 20260507001335 | 82 | 142 | 2.0 | 2.0 | 0.00 | 0.02 | 0.02 | 80 | 1019.0 |
| 20260507000831 | 82 | 154 | 1.0 | 2.0 | 0.00 | 0.02 | 0.02 | 80 | 1019.2 |
| 20260507000328 | 82 | 117 | 1.0 | 2.0 | 0.00 | 0.02 | 0.02 | 80 | 1019.1 |
| 20260506235824 | 82 | 101 | 1.0 | 2.0 | 0.00 | 0.02 | 0.02 | 80 | 1018.9 |
| 20260506235320 | 82 | 99 | 1.0 | 3.0 | 0.00 | 0.02 | 0.02 | 80 | 1019.1 |
| 20260506234816 | 82 | 116 | 2.0 | 2.0 | 0.00 | 0.02 | 0.02 | 81 | 1018.8 |
| 20260506234314 | 82 | 205 | 1.0 | 3.0 | 0.00 | 0.02 | 0.02 | 80 | 1018.9 |
| 20260506233812 | 82 | 104 | 1.0 | 2.0 | 0.00 | 0.02 | 0.02 | 80 | 1018.7 |
| 20260506233307 | 82 | 186 | 0.0 | 3.0 | 0.00 | 0.02 | 0.02 | 80 | 1018.7 |
| 20260506232804 | 82 | 135 | 2.0 | 3.0 | 0.00 | 0.02 | 0.02 | 80 | 1018.7 |
| 20260506232300 | 82 | 126 | 3.0 | 4.0 | 0.00 | 0.02 | 0.02 | 79 | 1018.5 |
| 20260506231757 | 83 | 115 | 2.0 | 4.0 | 0.00 | 0.02 | 0.02 | 79 | 1018.4 |
| 20260506231255 | 82 | 132 | 2.0 | 4.0 | 0.00 | 0.02 | 0.02 | 80 | 1018.4 |
| 20260506230752 | 82 | 103 | 3.0 | 4.0 | 0.00 | 0.02 | 0.02 | 80 | 1018.4 |
| 20260506230249 | 82 | 130 | 3.0 | 3.0 | 0.00 | 0.02 | 0.02 | 80 | 1018.4 |
| 20260506225745 | 82 | 156 | 2.0 | 4.0 | 0.00 | 0.02 | 0.02 | 79 | 1018.4 |
| 20260506225242 | 82 | 131 | 3.0 | 4.0 | 0.00 | 0.02 | 0.02 | 79 | 1018.3 |
| 20260506224738 | 83 | 222 | 5.0 | 6.0 | 0.00 | 0.02 | 0.02 | 79 | 1018.3 |
| 20260506224236 | 83 | 114 | 2.0 | 4.0 | 0.00 | 0.02 | 0.02 | 79 | 1018.1 |
| 20260506223732 | 82 | 106 | 5.0 | 8.0 | 0.00 | 0.02 | 0.02 | 78 | 1018.2 |
| 20260506223228 | 83 | 105 | 6.0 | 8.0 | 0.00 | 0.02 | 0.02 | 77 | 1017.9 |
| 20260506222725 | 83 | 116 | 4.0 | 7.0 | 0.00 | 0.02 | 0.02 | 77 | 1017.8 |
| 20260506222220 | 83 | 139 | 7.0 | 9.0 | 0.00 | 0.02 | 0.02 | 76 | 1017.6 |
| 20260506221719 | 83 | 177 | 8.0 | 9.0 | 0.00 | 0.02 | 0.02 | 76 | 1017.8 |
| 20260506221217 | 84 | 125 | 7.0 | 13.0 | 0.00 | 0.02 | 0.02 | 76 | 1017.9 |
| 20260506220714 | 85 | 82 | 5.0 | 10.0 | 0.00 | 0.02 | 0.02 | 74 | 1017.7 |
| 20260506220208 | 84 | 122 | 3.0 | 6.0 | 0.00 | 0.02 | 0.02 | 74 | 1017.7 |
| 20260506215705 | 83 | 177 | 4.0 | 8.0 | 0.00 | 0.02 | 0.02 | 75 | 1017.6 |
| 20260506215200 | 83 | 153 | 4.0 | 7.0 | 0.00 | 0.02 | 0.02 | 74 | 1017.5 |
| 20260506214658 | 83 | 121 | 6.0 | 9.0 | 0.00 | 0.02 | 0.02 | 73 | 1017.9 |
| 20260506214155 | 83 | 189 | 5.0 | 7.0 | 0.00 | 0.02 | 0.02 | 75 | 1017.7 |
| 20260506213653 | 83 | 114 | 7.0 | 9.0 | 0.00 | 0.02 | 0.02 | 75 | 1017.9 |
| 20260506213150 | 84 | 104 | 4.0 | 9.0 | 0.00 | 0.02 | 0.02 | 75 | 1017.5 |
| 20260506212647 | 83 | 92 | 8.0 | 11.0 | 0.00 | 0.02 | 0.02 | 77 | 1017.7 |
| 20260506212142 | 83 | 101 | 7.0 | 10.0 | 0.00 | 0.02 | 0.02 | 76 | 1017.6 |
| 20260506211638 | 84 | 143 | 8.0 | 11.0 | 0.00 | 0.02 | 0.02 | 75 | 1017.5 |
| 20260506211135 | 84 | 117 | 4.0 | 13.0 | 0.00 | 0.02 | 0.02 | 75 | 1017.6 |
| 20260506210632 | 84 | 165 | 7.0 | 10.0 | 0.00 | 0.02 | 0.02 | 73 | 1017.4 |
| 20260506210128 | 83 | 129 | 5.0 | 8.0 | 0.00 | 0.02 | 0.02 | 75 | 1017.3 |
| 20260506205625 | 84 | 123 | 8.0 | 9.0 | 0.00 | 0.02 | 0.02 | 74 | 1017.5 |
| 20260506205120 | 84 | 68 | 7.0 | 10.0 | 0.00 | 0.02 | 0.02 | 73 | 1017.5 |
| 20260506204618 | 84 | 146 | 6.0 | 11.0 | 0.00 | 0.02 | 0.02 | 73 | 1017.3 |
| 20260506204115 | 85 | 172 | 5.0 | 9.0 | 0.00 | 0.02 | 0.02 | 69 | 1017.3 |
| 20260506203613 | 85 | 128 | 6.0 | 9.0 | 0.00 | 0.02 | 0.02 | 70 | 1017.4 |
| 20260506203109 | 84 | 122 | 5.0 | 8.0 | 0.00 | 0.02 | 0.02 | 72 | 1017.3 |
| 20260506202608 | 84 | 128 | 9.0 | 13.0 | 0.00 | 0.02 | 0.02 | 71 | 1017.4 |
| 20260506202104 | 84 | 122 | 8.0 | 9.0 | 0.00 | 0.02 | 0.02 | 72 | 1017.5 |
| 20260506201601 | 84 | 109 | 7.0 | 11.0 | 0.00 | 0.02 | 0.02 | 73 | 1017.4 |
| 20260506201057 | 85 | 152 | 7.0 | 11.0 | 0.00 | 0.02 | 0.02 | 72 | 1017.4 |
| 20260506200554 | 84 | 132 | 6.0 | 8.0 | 0.00 | 0.02 | 0.02 | 76 | 1017.2 |
| 20260506200051 | 84 | 177 | 4.0 | 9.0 | 0.00 | 0.02 | 0.02 | 76 | 1017.3 |
| 20260506195547 | 84 | 111 | 9.0 | 15.0 | 0.00 | 0.02 | 0.02 | 74 | 1017.4 |
| 20260506195044 | 85 | 111 | 9.0 | 15.0 | 0.00 | 0.02 | 0.02 | 72 | 1017.5 |
| 20260506194541 | 85 | 86 | 8.0 | 14.0 | 0.00 | 0.02 | 0.02 | 73 | 1017.7 |
| 20260506194037 | 85 | 109 | 8.0 | 13.0 | 0.00 | 0.02 | 0.02 | 72 | 1017.6 |
| 20260506193535 | 84 | 90 | 6.0 | 10.0 | 0.00 | 0.02 | 0.02 | 73 | 1017.7 |
| 20260506193032 | 84 | 169 | 6.0 | 10.0 | 0.00 | 0.02 | 0.02 | 74 | 1017.8 |
| 20260506192529 | 84 | 90 | 9.0 | 11.0 | 0.00 | 0.02 | 0.02 | 75 | 1017.8 |
| 20260506192025 | 84 | 138 | 9.0 | 11.0 | 0.00 | 0.02 | 0.02 | 73 | 1017.8 |
| 20260506191522 | 84 | 63 | 6.0 | 11.0 | 0.00 | 0.02 | 0.02 | 74 | 1017.9 |
| 20260506191018 | 84 | 105 | 11.0 | 13.0 | 0.00 | 0.02 | 0.02 | 74 | 1018.0 |
| 20260506190515 | 85 | 124 | 8.0 | 13.0 | 0.00 | 0.02 | 0.02 | 74 | 1017.9 |
| 20260506190012 | 84 | 196 | 9.0 | 11.0 | 0.00 | 0.02 | 0.02 | 75 | 1018.1 |